Location: Fort McMurray
(56.7330°N, 111.3830°W)
Time: 14:11:00
(UTC-06:00)

Envisat - Visible Passes

Search period start: 15 October 2018 00:00
Search period end: 25 October 2018 00:00
Orbit: 764 x 766 km, 98.2° (Epoch: 15 October)

Date Brightness Start Highest point End Pass type
(mag) Time Alt. Az. Time Alt. Az. Time Alt. Az.
15 Oct 3.5 20:25:42 10° S 20:30:44 62° WSW 20:35:49 10° NNW visible
15 Oct 5.9 22:08:41 10° WSW 22:10:51 13° W 22:13:01 10° NW visible
16 Oct 2.9 19:48:53 10° SSE 19:53:57 75° ENE 19:59:03 10° NNW visible
16 Oct 5.2 21:29:32 10° SW 21:33:32 23° W 21:37:34 10° NW visible
17 Oct 3.4 19:12:33 10° SE 19:17:20 43° ENE 19:22:08 10° N visible
17 Oct 4.3 20:51:39 10° SSW 20:56:26 41° W 21:01:15 10° NNW visible
18 Oct 3.2 20:14:26 10° S 20:19:31 74° WSW 20:24:38 10° NNW visible
18 Oct 5.8 21:56:34 10° WSW 21:59:28 15° W 22:02:24 10° NW visible
19 Oct 3.0 19:37:46 10° SSE 19:42:47 64° ENE 19:47:50 10° NNW visible
19 Oct 5.0 21:17:56 10° SSW 21:22:14 27° W 21:26:33 10° NNW visible
20 Oct 3.6 19:01:35 10° SE 19:06:13 37° ENE 19:10:53 10° N visible
20 Oct 3.9 20:40:16 10° S 20:45:10 48° W 20:50:08 10° NNW visible
21 Oct 3.0 20:03:13 10° SSE 20:08:19 87° WSW 20:13:27 10° NNW visible
21 Oct 5.6 21:44:41 10° SW 21:48:07 18° W 21:51:35 10° NW visible
22 Oct 3.1 19:26:42 10° SE 19:31:38 54° ENE 19:36:36 10° N visible
22 Oct 4.7 21:06:24 10° SSW 21:10:56 32° W 21:15:30 10° NNW visible
23 Oct 6.5 07:30:11 10° ENE 07:30:54 10° ENE 07:31:38 10° E visible
23 Oct 3.7 18:50:40 10° ESE 18:55:07 32° ENE 18:59:36 10° N visible
23 Oct 3.6 20:28:56 10° S 20:33:57 58° W 20:38:59 10° NNW visible
23 Oct 5.9 22:12:22 10° W 22:14:07 12° W 22:15:52 10° WNW visible
24 Oct 2.9 19:52:03 10° SSE 19:57:08 80° ENE 20:02:15 10° NNW visible
24 Oct 5.3 21:32:56 10° SW 21:36:47 21° W 21:40:40 10° NW visible
